Regional Weather Roundup
Issued by NWS

Home | Current Version | Previous Version | Text Only | Print | Product List | Glossary Off
Versions: 1 2 3 4 5 6 7 8 9 10 11 12 13 14 15 16 17 18 19 20 21 22 23 24 25 26 27 28 29 30 31 32 33 34 35 36 37 38 39 40 41 42 43 44 45 46 47 48 49 50

000
ASUS45 KSLC 231510
RWRUT

UTAH REGIONAL WEATHER ROUNDUP
NATIONAL WEATHER SERVICE SALT LAKE CITY UT
900 AM MDT WED AUG 23 2017

UTZ001>011-023>025-231600-

NORTHERN UTAH

CITY           SKY/WX    TMP DP  RH WIND       PRES   REMARKS
BRIGHAM CITY   MOSUNNY   72  51  47 CALM      30.19S
DUGWAY         MOSUNNY   72  44  37 SE5       30.17S
HILL AFB       CLOUDY    72  48  41 E9        30.20S
LOGAN          CLOUDY    66  56  70 NE5       30.21R
OGDEN          MOSUNNY   72  49  44 SE7       30.18R
SALT LAKE CITY PTSUNNY   74  56  53 SE9       30.17S
TOOELE VALLEY  MOSUNNY   72  52  49 S6        30.18S
WENDOVER       CLOUDY    70  50  49 E6        30.17R
HEBER CITY     MOSUNNY   61  52  72 CALM      30.27S
WEST JORDAN    MOSUNNY   73  58  59 S12       30.20S

$$

UTZ011>015-024>027-231600-

CENTRAL/NORTHEAST UTAH

CITY           SKY/WX    TMP DP  RH WIND       PRES   REMARKS
PROVO AIRPORT  PTSUNNY   67  55  65 CALM      30.22S
MOAB/CANYONLAN SUNNY     75  49  39 E5        30.20R
DELTA          MOSUNNY   66  50  55 CALM      30.22R
PRICE          SUNNY     66  53  63 CALM      30.29R
ROOSEVELT      PTSUNNY   66  45  45 CALM      30.28R THUNDER
VERNAL         CLOUDY    68  50  52 W3        30.26R

$$

UTZ013>016-019>022-027-231600-

SOUTHERN UTAH

CITY           SKY/WX    TMP DP  RH WIND       PRES   REMARKS
BRYCE CANYON   SUNNY     58  47  66 N3        30.41F
CEDAR CITY     MOSUNNY   66  46  48 NE6       30.26R
MILFORD        SUNNY     67  46  47 S8        30.22R
ST GEORGE      MOSUNNY   75  48  38 N3        30.10R
HANKSVILLE     SUNNY     72  45  37 CALM      30.23R
BLANDING       SUNNY     72  49  44 S3        30.38R

$$

REGIONAL REPORTS     COLORADO/ARIZONA

CITY           SKY/WX    TMP DP  RH WIND       PRES   REMARKS
CRAIG, CO      CLOUDY    59  47  64 CALM      30.33R
GRAND JUNCTION CLOUDY    72  51  47 SE12      30.24R
RIFLE, CO      CLOUDY    66  46  48 CALM      30.30S
MONTROSE, CO   SUNNY     64  47  53 S5        30.33S
CORTEZ, CO     SUNNY     67  51  56 CALM      30.31S
COLORADO CITY    N/A     68  54  60 CALM      30.24S
PAGE, AZ       MOSUNNY   76  47  35 CALM      30.17R
GRAND CANYON   SUNNY     66  51  58 CALM      30.35R
KINGMAN, AZ    MOSUNNY   78  47  33 NW3       30.09R
FLAGSTAFF, AZ  SUNNY     65  48  54 CALM      30.37S

$$

REGIONAL REPORTS    NEVADA/IDAHO/WYOMING

CITY           SKY/WX    TMP DP  RH WIND       PRES   REMARKS
LAS VEGAS, NV  MOSUNNY   86  48  26 CALM      29.99R
ELY, NY        SUNNY     59  47  64 S7        30.30S
ELKO, NV       MOSUNNY   61  50  67 E3        30.23S
POCATELLO, ID  CLOUDY    70  51  51 W6        30.19R
BURLEY, ID     CLOUDY    67  53  61 CALM      30.14R
FORT BRIDGER,  RAIN      60  48  62 SE13      30.39S
EVANSTON, WY   CLOUDY    61  47  59 E7        30.37R
ROCK SPRINGS,  CLOUDY    66  39  37 SW17      30.33R
KEMMERER, WY     N/A     61  43  51 NW10      30.38S

$$



USA.gov is the U.S. government's official web portal to all federal, state and local government web resources and services.